Volver al catálogo

STARLINK-36381

ActivoComunicacionesVLEO
NORAD 67952·PAYLOAD·🇺🇸 United States

Lanzado Feb 24, 2026 desde Vandenberg Space Force Base

Loading…

Próximos Pases (próximas 24 horas)

TLE

ActualizadoSource: CelesTrak SupGP

Época: Sep 14, 2026, 23:17 UTC

1 67952C 26037W   26257.97062500 -.00019718  00000+0 -71421-3 0  2570
2 67952  43.0022 202.0022 0001003 251.0809 193.6147 15.27586800    13

Sigue STARLINK-36381 en tiempo real con AllMySat

Download on the App Store